Regional Weather Roundup
Issued by NWS Newport/Morehead, NC

Current Version | Previous Version | Text Only | Print | Product List | Glossary Off
Versions: 1 2 3 4 5 6 7 8 9 10 11 12 13 14 15 16 17 18 19 20 21 22 23 24 25 26 27 28 29 30 31 32 33 34 35 36 37 38 39 40 41 42 43 44 45 46 47 48 49 50
000 ASUS42 KMHX 070225 RWRMHX WEATHER ROUNDUP FOR EASTERN NORTH CAROLINA NATIONAL WEATHER SERVICE NEWPORT/MOREHEAD CITY NC 1000 PM EDT MON JUL 06 2015 NOTE: "FAIR" INDICATES FEW OR NO CLOUDS BELOW 12,000 FEET WITH NO SIGNIFICANT WEATHER AND/OR OBSTRUCTIONS TO VISIBILITY NCZ015>017-031-032-045>047-102-103-070300- NORTH COAST CITY SKY/WX TMP DP RH WIND PRES REMARKS EDENTON N/A 79 71 77 S7 30.09R ELIZABETH CITY CLEAR 79 75 87 S7 30.08R KITTY HAWK PTCLDY 79 73 82 S6 30.08S MANTEO PTCLDY 80 73 81 SW14 30.10R $$ NCZ045>047-081-094-103-104-070300- CENTRAL COAST CITY SKY/WX TMP DP RH WIND PRES REMARKS FRISCO PTCLDY 78 75 90 SW9 30.11S SWANQUARTER N/A 81 N/A N/A SW13G23 30.06S $$ NCZ095-097-098-100-101-070300- SOUTHERN COAST CITY SKY/WX TMP DP RH WIND PRES REMARKS BEAUFORT CLEAR 80 76 87 SW14 30.10S CEDAR ISLAND N/A 79 N/A N/A S5G10 30.15S JACKSONVILLE PTCLDY 78 73 84 S7 30.09S PINEY ISLAND CLEAR N/A N/A N/A S6 30.10S WILMINGTON CLEAR 79 73 82 SW7 30.09F $$ NCZ011>013-027>030-043-044-078>080-089-090>093-098-070300- COASTAL PLAIN CITY SKY/WX TMP DP RH WIND PRES REMARKS AHOSKIE CLEAR 78 72 80 S6 30.06S CLINTON CLEAR 77 69 76 CALM 30.09R ELIZABETHTOWN CLEAR 77 72 83 S3 30.09S GOLDSBORO PTCLDY 80 71 74 S2 30.06R GREENVILLE PTCLDY 81 73 78 SW9 30.09R HAVELOCK CLEAR 79 74 84 S8 30.11S KENANSVILLE PTCLDY 76 67 71 CALM 30.10R KINSTON MOCLDY 79 72 78 S7 30.09R NEW BERN CLEAR 78 73 84 S9 30.10S RICHLANDS PTCLDY 73 66 78 SW5 30.10R ROCKY MOUNT PTCLDY 80 72 76 SE5 30.06R WASHINGTON CLEAR 78 72 83 SW7 30.09R WHITEVILLE CLEAR 77 73 85 S5 30.09S $$ AMZ130-135-150-152-154-156-158-170-250-252-270-ANZ085-086-088-633-658-670-070300- MARINE OBSERVATIONS STATION/POSITION TIME TEMP WIND PRES WAVE SWELL AIR SEA DIR/SP/G HT/PER HT/PER (UTC) (F) (DEG/KT/KT) (MB) (FT/S) (FT/S) CHESAPEAKE LIGHT 0200 79 190/ 19/ 20 1018.6 64 E VA BEACH 0150 78 77 180/ 12/ 16 1018.9 3/ 5 2/ 8 DUCK 0200 80 75 180/ 15/ 18 N/A 2 E DUCK 0111 76 N/A 3/ 4 2/13 OREGON INLET 0200 81 83 190/ 18/ 21 1019.1 13E OREGON INLT 0200 78 N/A 3/13 2/13 HATTERAS CG 0200 79 81 200/ 7/ 11 1019.3 DIAMOND BUOY 0150 80 81 200/ 17/ 19 1019.1 3/ 4 2/ 9 CAPE LOOKOUT 0200 80 200/ 10/ 15 1019.1 BEAUFORT LAB 0200 80 83 220/ 8/ 14 1018.7 30 SE NEW RVR IN NOT AVBL 27 SE WRIGHTSVLE 0200 80 210/ 10/ 12 N/A 5 SE WRIGHTSVLE NOT AVBL 225 S CAPE HAT 0150 81 80 180/ 10/ 12 1021.6 4/ 8 3/ 8 41 SE CHARLESTON 0150 81 83 190/ 14/ 16 1018.9 3/ 8 2/ 8 $$

USA.gov is the U.S. government's official web portal to all federal, state and local government web resources and services.